Flag for Canada Weather past 2 weeks in Lethbridge, Alberta, Canada

Now
30 °F

Overcast.


Feels Like: 23 °F
Forecast: 25 / 37 °F
Wind: 8 mph from Southeast

Location: Lethbridge


UV Index: 0 (Low)

Visibility: 10 mi


Pressure: 30.15 "Hg

Humidity: 86%

Dew point: 27 °F

Location of LethbridgeLocation

Historic Weather in Lethbridge

°F

Lethbridge temperature yesterday

Maximum temperature yesterday: 55 °F (at 12:00 PM)
Minimum temperature yesterday: 32 °F (at 10:54 PM)
Average temperature yesterday: 46 °F

Past Weeks' High & Low Weather Summary

 TemperatureHumidityPressure
High70 °F (Apr 8, 3:00 PM)100% (Apr 1, 12:00 PM)30.46 "Hg (Apr 1, 12:00 PM)
Low16 °F (Apr 13, 3:00 AM)16% (Apr 14, 5:00 PM)29.54 "Hg (Apr 9, 3:00 AM)
Average41 °F61%29.96 "Hg
* Reported Apr 1 12:00 Noon — Apr 16 12:00 Noon, Lethbridge, Weather by CustomWeather, © 2014

Note: Actual official high and low records may vary slightly from our data, if they occured in-between our weather recording intervals... More about our weather records

Advertising

Historic Weather Conditions — Data for Previous 24 hours

 ConditionsComfort  
Time TempWeatherWind HumidityBarometerVisibility
12:00 PM
Apr 16
30 °FCloudy.10 mph86%30.15 "Hg10 mi
11:00 AM28 °FLight snow. Mostly cloudy.7 mph93%30.16 "Hg6 mi
10:00 AM28 °FLight snow. Mostly cloudy.9 mph93%30.14 "Hg5 mi
9:00 AM27 °FLight snow. More clouds than sun.10 mph100%30.13 "Hg1 mi
8:49 AM27 °FLight snow. More clouds than sun.10 mph100%30.12 "Hg1 mi
8:00 AM27 °FLight snow. Mostly cloudy.9 mph100%30.12 "Hg1 mi
7:48 AM27 °FLight snow. Low clouds.9 mph100%30.11 "Hg2 mi
7:00 AM27 °FLight snow. Low clouds.7 mph100%30.10 "Hg6 mi
6:00 AM28 °FLight snow. Mostly cloudy.9 mph93%30.06 "Hg6 mi
5:00 AM28 °FLight snow. Mostly cloudy.9 mph93%30.03 "Hg3 mi
4:00 AM30 °FLight snow. Low clouds.8 mph93%30.01 "Hg1 mi
3:00 AM30 °FLight snow. Mostly cloudy.12 mph100%29.98 "Hg3 mi
2:04 AM32 °FLight snow. Mostly cloudy.6 mph100%29.97 "Hg1 mi
1:59 AM32 °FLight snow. Mostly cloudy.6 mph100%29.97 "Hg1 mi
1:00 AM32 °FLight snow. Mostly cloudy.6 mph100%29.96 "Hg1 mi
12:00 AM32 °FLight snow. Dense fog.3 mph100%29.94 "Hg1 mi
11:47 PM
Apr 15
32 °FLight snow. Mostly cloudy.3 mph100%29.95 "Hg1 mi
11:00 PM32 °FLight snow. Low clouds.3 mph100%29.94 "Hg1 mi
10:54 PM32 °FLight snow. Low clouds.3 mph100%29.94 "Hg1 mi
10:00 PM36 °FLight rain. Overcast.10 mph93%29.93 "Hg6 mi
9:00 PM37 °FLight rain. Overcast.14 mph93%29.91 "Hg8 mi
8:00 PM39 °FSprinkles. Overcast.9 mph87%29.88 "Hg8 mi
7:00 PM41 °FSprinkles. Overcast.12 mph81%29.87 "Hg10 mi
5:00 PM50 °FScattered showers. Overcast.26 mph35%29.75 "Hg15 mi
4:00 PM54 °FMore clouds than sun.24 mph28%29.73 "Hg20 mi
3:00 PM54 °FOvercast.20 mph28%29.71 "Hg25 mi
2:00 PM54 °FMostly cloudy.15 mph24%29.68 "Hg20 mi
1:00 PM55 °FOvercast.21 mph23%29.67 "Hg20 mi
Weather by CustomWeather, © 2014

See weather overview